Time,TemperatureF,DewpointF,PressureIn,WindDirection,WindDirectionDegrees,WindSpeedMPH,WindSpeedGustMPH,Humidity,HourlyPrecipIn,Conditions,Clouds,dailyrainin,SoftwareType,DateUTC
2013-03-06 00:01:00,12.0,8.0,-100.00,ESE,110,6.0,9.0,82,0.00,,,-99.99,,2013-03-06 07:01:00,
2013-03-06 00:11:00,12.0,8.0,-100.00,ESE,110,7.0,9.0,82,0.00,,,-99.99,,2013-03-06 07:11:00,
2013-03-06 00:22:00,12.0,8.0,-100.00,East,80,6.0,7.0,83,0.00,,,-99.99,,2013-03-06 07:22:00,
2013-03-06 00:32:00,11.0,8.0,-100.00,East,90,7.0,7.0,84,0.00,,,-99.99,,2013-03-06 07:32:00,
2013-03-06 00:42:00,12.0,8.0,-100.00,East,100,5.0,7.0,84,0.00,,,-99.99,,2013-03-06 07:42:00,
2013-03-06 00:52:00,11.0,8.0,-100.00,ESE,115,6.0,6.0,84,0.00,,,-99.99,,2013-03-06 07:52:00,
2013-03-06 01:01:00,12.0,8.0,-100.00,East,90,6.0,7.0,85,0.00,,,-99.99,,2013-03-06 08:01:00,
2013-03-06 01:11:00,11.0,8.0,-100.00,ESE,105,5.0,7.0,85,0.00,,,-99.99,,2013-03-06 08:11:00,
2013-03-06 01:21:00,11.0,8.0,-100.00,East,95,6.0,7.0,86,0.00,,,-99.99,,2013-03-06 08:21:00,
2013-03-06 01:32:00,10.0,7.0,-100.00,East,100,8.0,9.0,86,0.00,,,-99.99,,2013-03-06 08:32:00,
2013-03-06 01:42:00,10.0,7.0,-100.00,ESE,105,7.0,9.0,86,0.00,,,-99.99,,2013-03-06 08:42:00,
2013-03-06 01:52:00,10.0,7.0,-100.00,East,95,7.0,8.0,86,0.00,,,-99.99,,2013-03-06 08:52:00,
2013-03-06 02:01:00,10.0,7.0,-100.00,East,100,5.0,7.0,87,0.00,,,-99.99,,2013-03-06 09:01:00,
2013-03-06 02:12:00,10.0,7.0,-100.00,East,95,6.0,8.0,87,0.00,,,-99.99,,2013-03-06 09:12:00,
2013-03-06 02:21:00,11.0,8.0,-100.00,East,80,7.0,8.0,88,0.00,,,-99.99,,2013-03-06 09:21:00,
2013-03-06 02:31:00,11.0,8.0,-100.00,East,85,7.0,9.0,88,0.00,,,-99.99,,2013-03-06 09:31:00,
2013-03-06 02:42:00,10.0,7.0,-100.00,ESE,105,6.0,8.0,88,0.00,,,-99.99,,2013-03-06 09:42:00,
2013-03-06 02:51:00,11.0,8.0,-100.00,East,85,6.0,11.0,88,0.00,,,-99.99,,2013-03-06 09:51:00,
2013-03-06 03:01:00,11.0,8.0,-100.00,ESE,110,6.0,9.0,88,0.00,,,-99.99,,2013-03-06 10:01:00,
2013-03-06 03:11:00,11.0,8.0,-100.00,East,85,7.0,8.0,88,0.00,,,-99.99,,2013-03-06 10:11:00,
2013-03-06 03:21:00,10.0,8.0,-100.00,East,90,7.0,10.0,88,0.00,,,-99.99,,2013-03-06 10:21:00,
2013-03-06 03:32:00,10.0,8.0,-100.00,East,85,6.0,9.0,88,0.00,,,-99.99,,2013-03-06 10:32:00,
2013-03-06 03:42:00,11.0,8.0,-100.00,East,90,4.0,7.0,88,0.00,,,-99.99,,2013-03-06 10:42:00,
2013-03-06 03:51:00,11.0,8.0,-100.00,East,100,6.0,9.0,88,0.00,,,-99.99,,2013-03-06 10:51:00,
2013-03-06 04:02:00,11.0,8.0,-100.00,East,100,6.0,8.0,88,0.00,,,-99.99,,2013-03-06 11:02:00,
2013-03-06 04:11:00,11.0,8.0,-100.00,East,80,6.0,7.0,88,0.00,,,-99.99,,2013-03-06 11:11:00,
2013-03-06 04:22:00,10.0,7.0,-100.00,East,90,7.0,9.0,88,0.00,,,-99.99,,2013-03-06 11:22:00,
2013-03-06 04:32:00,10.0,7.0,-100.00,East,95,8.0,9.0,88,0.00,,,-99.99,,2013-03-06 11:32:00,
2013-03-06 04:42:00,10.0,7.0,-100.00,East,85,6.0,8.0,88,0.00,,,-99.99,,2013-03-06 11:42:00,
2013-03-06 04:52:00,10.0,8.0,-100.00,ENE,75,7.0,8.0,88,0.00,,,-99.99,,2013-03-06 11:52:00,
2013-03-06 05:02:00,10.0,7.0,-100.00,East,100,6.0,9.0,88,0.00,,,-99.99,,2013-03-06 12:02:00,
2013-03-06 05:11:00,9.0,7.0,-100.00,East,100,7.0,7.0,88,0.00,,,-99.99,,2013-03-06 12:11:00,
2013-03-06 05:21:00,9.0,7.0,-100.00,East,85,6.0,7.0,88,0.00,,,-99.99,,2013-03-06 12:21:00,
2013-03-06 05:32:00,9.0,7.0,-100.00,ESE,105,6.0,7.0,88,0.00,,,-99.99,,2013-03-06 12:32:00,
2013-03-06 05:42:00,10.0,7.0,-100.00,East,80,9.0,10.0,88,0.00,,,-99.99,,2013-03-06 12:42:00,
2013-03-06 05:52:00,11.0,8.0,-100.00,ENE,75,7.0,9.0,88,0.00,,,-99.99,,2013-03-06 12:52:00,
2013-03-06 06:02:00,11.0,9.0,-100.00,ESE,105,6.0,9.0,88,0.00,,,-99.99,,2013-03-06 13:02:00,
2013-03-06 06:12:00,11.0,8.0,-100.00,East,95,7.0,7.0,88,0.00,,,-99.99,,2013-03-06 13:12:00,
2013-03-06 06:22:00,11.0,8.0,-100.00,ESE,105,8.0,9.0,88,0.00,,,-99.99,,2013-03-06 13:22:00,
2013-03-06 06:32:00,11.0,9.0,-100.00,ESE,105,7.0,10.0,88,0.00,,,-99.99,,2013-03-06 13:32:00,
2013-03-06 06:42:00,12.0,9.0,-100.00,East,95,4.0,10.0,88,0.00,,,-99.99,,2013-03-06 13:42:00,
2013-03-06 06:52:00,13.0,10.0,-100.00,NE,55,7.0,13.0,88,0.00,,,-99.99,,2013-03-06 13:52:00,
2013-03-06 07:01:00,12.0,10.0,-100.00,East,80,6.0,9.0,87,0.00,,,-99.99,,2013-03-06 14:01:00,
2013-03-06 07:11:00,12.0,9.0,-100.00,ESE,105,6.0,12.0,87,0.00,,,-99.99,,2013-03-06 14:11:00,
2013-03-06 07:21:00,12.0,8.0,-100.00,East,100,6.0,9.0,86,0.00,,,-99.99,,2013-03-06 14:21:00,
2013-03-06 07:32:00,12.0,9.0,-100.00,ENE,70,7.0,8.0,86,0.00,,,-99.99,,2013-03-06 14:32:00,
2013-03-06 07:42:00,12.0,9.0,-100.00,East,100,7.0,9.0,86,0.00,,,-99.99,,2013-03-06 14:42:00,
2013-03-06 07:52:00,12.0,9.0,-100.00,East,90,6.0,9.0,86,0.00,,,-99.99,,2013-03-06 14:52:00,
2013-03-06 08:02:00,13.0,9.0,-100.00,East,95,6.0,9.0,85,0.00,,,-99.99,,2013-03-06 15:02:00,
2013-03-06 08:11:00,16.0,13.0,-100.00,NE,45,7.0,9.0,85,0.00,,,-99.99,,2013-03-06 15:11:00,
2013-03-06 08:21:00,19.0,14.0,-100.00,NE,35,9.0,12.0,82,0.00,,,-99.99,,2013-03-06 15:21:00,
2013-03-06 08:32:00,19.0,14.0,-100.00,East,90,6.0,9.0,80,0.00,,,-99.99,,2013-03-06 15:32:00,
2013-03-06 08:42:00,21.0,15.0,-100.00,ENE,75,7.0,8.0,77,0.00,,,-99.99,,2013-03-06 15:42:00,
2013-03-06 08:52:00,23.0,15.0,-100.00,East,90,5.0,9.0,71,0.00,,,-99.99,,2013-03-06 15:52:00,
2013-03-06 09:01:00,25.0,16.0,-100.00,East,85,7.0,9.0,68,0.00,,,-99.99,,2013-03-06 16:01:00,
2013-03-06 09:11:00,27.0,16.0,-100.00,East,90,7.0,11.0,63,0.00,,,-99.99,,2013-03-06 16:11:00,
2013-03-06 09:21:00,28.0,16.0,-100.00,East,95,4.0,7.0,59,0.00,,,-99.99,,2013-03-06 16:21:00,
2013-03-06 09:32:00,30.0,16.0,-100.00,East,95,4.0,6.0,55,0.00,,,-99.99,,2013-03-06 16:32:00,
2013-03-06 09:42:00,32.0,17.0,-100.00,East,85,3.0,4.0,52,0.00,,,-99.99,,2013-03-06 16:42:00,
2013-03-06 09:52:00,33.0,16.0,-100.00,ESE,105,3.0,5.0,48,0.00,,,-99.99,,2013-03-06 16:52:00,
2013-03-06 10:01:00,35.0,17.0,-100.00,East,90,2.0,4.0,46,0.00,,,-99.99,,2013-03-06 17:01:00,
2013-03-06 10:11:00,38.0,17.0,-100.00,ENE,75,2.0,5.0,43,0.00,,,-99.99,,2013-03-06 17:11:00,
2013-03-06 10:21:00,40.0,17.0,-100.00,ENE,75,0.0,4.0,38,0.00,,,-99.99,,2013-03-06 17:21:00,
2013-03-06 10:32:00,40.0,15.0,-100.00,East,90,4.0,5.0,36,0.00,,,-99.99,,2013-03-06 17:32:00,
2013-03-06 10:42:00,39.0,14.0,-100.00,ESE,120,2.0,4.0,34,0.00,,,-99.99,,2013-03-06 17:42:00,
2013-03-06 10:52:00,40.0,14.0,-100.00,East,100,3.0,4.0,34,0.00,,,-99.99,,2013-03-06 17:52:00,
2013-03-06 11:02:00,40.0,14.0,-100.00,East,80,4.0,6.0,33,0.00,,,-99.99,,2013-03-06 18:02:00,
2013-03-06 11:28:00,42.0,15.0,-100.00,ESE,105,2.0,3.0,32,0.00,,,-99.99,,2013-03-06 18:28:00,
2013-03-06 11:42:00,45.0,16.0,-100.00,WNW,290,10.0,12.0,30,0.00,,,-99.99,,2013-03-06 18:42:00,
2013-03-06 11:52:00,45.0,17.0,-100.00,WNW,285,8.0,11.0,31,0.00,,,-99.99,,2013-03-06 18:52:00,
2013-03-06 12:02:00,45.0,16.0,-100.00,WNW,295,10.0,11.0,31,0.00,,,-99.99,,2013-03-06 19:02:00,
2013-03-06 12:11:00,45.0,16.0,-100.00,WNW,295,9.0,12.0,30,0.00,,,-99.99,,2013-03-06 19:11:00,
2013-03-06 12:21:00,45.0,15.0,-100.00,WNW,300,12.0,14.0,29,0.00,,,-99.99,,2013-03-06 19:21:00,
2013-03-06 12:32:00,45.0,16.0,-100.00,WNW,300,13.0,16.0,30,0.00,,,-99.99,,2013-03-06 19:32:00,
2013-03-06 12:43:00,45.0,16.0,-100.00,NW,305,13.0,15.0,30,0.00,,,-99.99,,2013-03-06 19:43:00,
2013-03-06 12:52:00,46.0,17.0,-100.00,WNW,300,12.0,16.0,30,0.00,,,-99.99,,2013-03-06 19:52:00,
2013-03-06 13:02:00,46.0,17.0,-100.00,WNW,300,14.0,17.0,31,0.00,,,-99.99,,2013-03-06 20:02:00,
2013-03-06 13:12:00,46.0,18.0,-100.00,WNW,300,15.0,17.0,31,0.00,,,-99.99,,2013-03-06 20:12:00,
2013-03-06 13:22:00,48.0,19.0,-100.00,NW,310,11.0,17.0,30,0.00,,,-99.99,,2013-03-06 20:22:00,
2013-03-06 13:32:00,48.0,19.0,-100.00,NW,310,11.0,17.0,30,0.00,,,-99.99,,2013-03-06 20:32:00,
2013-03-06 13:42:00,48.0,19.0,-100.00,WNW,295,12.0,16.0,30,0.00,,,-99.99,,2013-03-06 20:42:00,
2013-03-06 13:52:00,49.0,19.0,-100.00,WNW,295,7.0,15.0,29,0.00,,,-99.99,,2013-03-06 20:52:00,
2013-03-06 14:02:00,50.0,19.0,-100.00,West,275,6.0,11.0,29,0.00,,,-99.99,,2013-03-06 21:02:00,
2013-03-06 14:12:00,49.0,18.0,-100.00,WNW,285,7.0,11.0,28,0.00,,,-99.99,,2013-03-06 21:12:00,
2013-03-06 14:22:00,49.0,18.0,-100.00,West,260,4.0,10.0,28,0.00,,,-99.99,,2013-03-06 21:22:00,
2013-03-06 14:32:00,50.0,18.0,-100.00,West,270,5.0,8.0,27,0.00,,,-99.99,,2013-03-06 21:32:00,
2013-03-06 14:42:00,51.0,18.0,-100.00,WNW,295,7.0,11.0,27,0.00,,,-99.99,,2013-03-06 21:42:00,
2013-03-06 14:51:00,51.0,18.0,-100.00,WNW,285,4.0,8.0,26,0.00,,,-99.99,,2013-03-06 21:51:00,
2013-03-06 15:01:00,51.0,18.0,-100.00,WSW,255,7.0,10.0,26,0.00,,,-99.99,,2013-03-06 22:01:00,
2013-03-06 15:11:00,51.0,18.0,-100.00,West,260,4.0,9.0,26,0.00,,,-99.99,,2013-03-06 22:11:00,
2013-03-06 15:21:00,50.0,17.0,-100.00,WNW,290,9.0,12.0,26,0.00,,,-99.99,,2013-03-06 22:21:00,
2013-03-06 15:32:00,49.0,17.0,-100.00,West,275,6.0,12.0,27,0.00,,,-99.99,,2013-03-06 22:32:00,
2013-03-06 15:42:00,49.0,17.0,-100.00,NW,305,6.0,9.0,27,0.00,,,-99.99,,2013-03-06 22:42:00,
2013-03-06 15:51:00,50.0,18.0,-100.00,WNW,300,4.0,9.0,26,0.00,,,-99.99,,2013-03-06 22:51:00,
2013-03-06 16:01:00,51.0,17.0,-100.00,West,270,5.0,9.0,26,0.00,,,-99.99,,2013-03-06 23:01:00,
2013-03-06 16:11:00,50.0,17.0,-100.00,West,265,5.0,10.0,26,0.00,,,-99.99,,2013-03-06 23:11:00,
2013-03-06 16:21:00,49.0,15.0,-100.00,NNW,340,8.0,16.0,24,0.00,,,-99.99,,2013-03-06 23:21:00,
2013-03-06 16:32:00,50.0,15.0,-100.00,WSW,245,7.0,14.0,24,0.00,,,-99.99,,2013-03-06 23:32:00,
2013-03-06 16:42:00,50.0,16.0,-100.00,SSW,205,2.0,7.0,26,0.00,,,-99.99,,2013-03-06 23:42:00,
2013-03-06 16:52:00,47.0,15.0,-100.00,South,190,2.0,3.0,27,0.00,,,-99.99,,2013-03-06 23:52:00,
2013-03-06 17:01:00,45.0,15.0,-100.00,South,180,4.0,6.0,28,0.00,,,-99.99,,2013-03-07 00:01:00,
2013-03-06 17:11:00,43.0,15.0,-100.00,ENE,70,1.0,4.0,31,0.00,,,-99.99,,2013-03-07 00:11:00,
2013-03-06 17:21:00,40.0,14.0,-100.00,SW,225,5.0,7.0,34,0.00,,,-99.99,,2013-03-07 00:21:00,
2013-03-06 17:32:00,39.0,15.0,-100.00,SW,215,1.0,7.0,36,0.00,,,-99.99,,2013-03-07 00:32:00,
2013-03-06 17:42:00,38.0,15.0,-100.00,SSW,195,0.0,2.0,37,0.00,,,-99.99,,2013-03-07 00:42:00,
2013-03-06 17:51:00,38.0,15.0,-100.00,South,170,4.0,6.0,38,0.00,,,-99.99,,2013-03-07 00:51:00,
2013-03-06 18:01:00,37.0,15.0,-100.00,SW,225,1.0,6.0,39,0.00,,,-99.99,,2013-03-07 01:01:00,
2013-03-06 18:11:00,36.0,15.0,-100.00,South,190,3.0,4.0,41,0.00,,,-99.99,,2013-03-07 01:11:00,
2013-03-06 18:21:00,35.0,15.0,-100.00,SSE,150,1.0,4.0,43,0.00,,,-99.99,,2013-03-07 01:21:00,
2013-03-06 18:31:00,35.0,15.0,-100.00,SE,145,0.0,4.0,44,0.00,,,-99.99,,2013-03-07 01:31:00,
2013-03-06 18:42:00,33.0,15.0,-100.00,SSE,150,2.0,3.0,46,0.00,,,-99.99,,2013-03-07 01:42:00,
2013-03-06 18:51:00,32.0,15.0,-100.00,SSE,150,2.0,3.0,48,0.00,,,-99.99,,2013-03-07 01:51:00,
2013-03-06 19:01:00,31.0,15.0,-100.00,SSE,155,0.0,3.0,49,0.00,,,-99.99,,2013-03-07 02:01:00,
2013-03-06 19:11:00,31.0,15.0,-100.00,SSE,150,0.0,2.0,51,0.00,,,-99.99,,2013-03-07 02:11:00,
2013-03-06 19:21:00,31.0,16.0,-100.00,SE,125,1.0,4.0,53,0.00,,,-99.99,,2013-03-07 02:21:00,
2013-03-06 19:32:00,31.0,16.0,-100.00,East,100,3.0,4.0,54,0.00,,,-99.99,,2013-03-07 02:32:00,
2013-03-06 19:41:00,31.0,16.0,-100.00,East,100,3.0,4.0,54,0.00,,,-99.99,,2013-03-07 02:41:00,
2013-03-06 19:51:00,31.0,16.0,-100.00,East,100,3.0,4.0,54,0.00,,,-99.99,,2013-03-07 02:51:00,
2013-03-06 20:02:00,31.0,16.0,-100.00,East,95,2.0,6.0,54,0.00,,,-99.99,,2013-03-07 03:02:00,
2013-03-06 20:11:00,29.0,15.0,-100.00,ESE,115,4.0,7.0,54,0.00,,,-99.99,,2013-03-07 03:11:00,
2013-03-06 20:21:00,29.0,15.0,-100.00,ESE,110,2.0,5.0,55,0.00,,,-99.99,,2013-03-07 03:21:00,
2013-03-06 20:32:00,29.0,15.0,-100.00,East,85,3.0,6.0,56,0.00,,,-99.99,,2013-03-07 03:32:00,
2013-03-06 20:42:00,28.0,15.0,-100.00,East,100,4.0,6.0,57,0.00,,,-99.99,,2013-03-07 03:42:00,
2013-03-06 20:52:00,29.0,17.0,-100.00,East,80,6.0,7.0,59,0.00,,,-99.99,,2013-03-07 03:52:00,
2013-03-06 21:01:00,29.0,17.0,-100.00,ENE,60,7.0,10.0,59,0.00,,,-99.99,,2013-03-07 04:01:00,
2013-03-06 21:11:00,28.0,16.0,-100.00,ESE,115,2.0,7.0,59,0.00,,,-99.99,,2013-03-07 04:11:00,
2013-03-06 21:21:00,28.0,16.0,-100.00,ENE,75,4.0,6.0,59,0.00,,,-99.99,,2013-03-07 04:21:00,
2013-03-06 21:32:00,29.0,17.0,-100.00,East,90,6.0,9.0,60,0.00,,,-99.99,,2013-03-07 04:32:00,
2013-03-06 21:42:00,29.0,17.0,-100.00,ESE,105,5.0,9.0,60,0.00,,,-99.99,,2013-03-07 04:42:00,
2013-03-06 21:51:00,28.0,16.0,-100.00,ESE,110,4.0,7.0,60,0.00,,,-99.99,,2013-03-07 04:51:00,
2013-03-06 22:02:00,27.0,16.0,-100.00,East,100,4.0,6.0,61,0.00,,,-99.99,,2013-03-07 05:02:00,
2013-03-06 22:12:00,27.0,16.0,-100.00,East,80,6.0,9.0,62,0.00,,,-99.99,,2013-03-07 05:12:00,
2013-03-06 22:22:00,27.0,16.0,-100.00,ENE,75,4.0,5.0,62,0.00,,,-99.99,,2013-03-07 05:22:00,
2013-03-06 22:32:00,27.0,16.0,-100.00,East,85,6.0,7.0,63,0.00,,,-99.99,,2013-03-07 05:32:00,
2013-03-06 22:42:00,26.0,16.0,-100.00,ESE,110,4.0,7.0,64,0.00,,,-99.99,,2013-03-07 05:42:00,
2013-03-06 22:52:00,26.0,16.0,-100.00,ESE,110,4.0,6.0,64,0.00,,,-99.99,,2013-03-07 05:52:00,
2013-03-06 23:01:00,26.0,15.0,-100.00,SE,125,5.0,6.0,64,0.00,,,-99.99,,2013-03-07 06:01:00,
2013-03-06 23:11:00,26.0,16.0,-100.00,East,100,4.0,9.0,65,0.00,,,-99.99,,2013-03-07 06:11:00,
2013-03-06 23:21:00,25.0,15.0,-100.00,East,95,6.0,7.0,65,0.00,,,-99.99,,2013-03-07 06:21:00,
2013-03-06 23:32:00,25.0,15.0,-100.00,ESE,105,6.0,7.0,66,0.00,,,-99.99,,2013-03-07 06:32:00,
2013-03-06 23:42:00,25.0,15.0,-100.00,SE,130,4.0,9.0,66,0.00,,,-99.99,,2013-03-07 06:42:00,
2013-03-06 23:51:00,24.0,14.0,-100.00,SE,125,6.0,7.0,66,0.00,,,-99.99,,2013-03-07 06:51:00,